SL-16 DEB, 22359

Orbit data source: Space-Track

SL-16 DEB, 22359 is space debris in LEO originally from a launch on Fri, 25 Dec 1992 UTC launched from the Tyuratam Missile And Space Complex (TTMTR). Debris objects in space refer to the collection of defunct objects orbiting the Earth. Examples of debris include non-operational satellites, rocket bodies, and fragments generated from explosions, collisions, or faulty payload assembly.

Loading next visibility...
Identifier
22359, 1992-093AY
Orbit
LEO
Country
Flag of CISCIS
Related business
Manufacturer
Unknown
Mission
Spacecraft
Bus & Motor
Unknown
Mass
Unknown
Launch date (UTC)
1992-12-25 (33 years ago)
Launch vehicle
Unknown
Launch site
Tyuratam Missile And Space Complex (TTMTR)
Object type
Payload
Rocket body
Debris
Shape & HBR
Unknown shape, 0.1 m
Radar Cross Section
Small (<0.1 m²)

Expand to show TLE details & history
Last TLE update: 9 hours ago

TLE from 9 hours ago
0 SL-16 DEB
1 22359U 92093AY  26127.08499175  .00001200  00000-0  80028-3 0  9999
2 22359  70.7408  32.6152 0159961 187.0195 288.0177 13.97140272685323
Epoch: 2026-05-07T02:02Z
TLE epoch observation values (Epoch: 2026-05-07T02:02:23.287Z)
Latitude
60.2388°
Longitude
-80.35015°
Altitude
879.074 km
Speed
7.436 km/s
True Right ascension
11h 40m 43s
True Declination
60° 05' 34"
Sunlit
Object was in daylight at epoch
Visualization orbit readout
Latitude
Unknown
Longitude
Unknown
Altitude
Unknown
Speed
Unknown
Apparent Right ascension
Unknown
Apparent Declination
Unknown
Sunlit
N/A
Visualization observer readout
Local Sidereal Time
19:08:51
Azimuth
Unknown
Elevation
Unknown
Doppler factor
Unknown
Orbital elements
Apogee altitude
1,018.131 km
Perigee altitude
785.233 km
Semi-major axis
7,279.819 km
Eccentricity
0.016
Inclination
70.7408°
RAAN
32.6152°
Arg. of periapsis
187.0195°
True anomaly
286.264°
Mean anomaly
288.0177°
Eccentric anomaly
287.1419°
Mean motion
3.49432 °/min
Orbital period
103.02 mins
BSTAR
0.00080028
Loading maneuver chart data...
Computing Atmospheric mass density...
Loading historical data...
Loading historical data...
Loading historical data...
Loading historical data...
Loading historical data...
Loading historical data...
Loading historical data...

Documentation

Showing up to 5 results
|